Location: Unspecified
(39.4168°N, 0.0000°E)
Time: 16:42:17
(UTC+00:00)

Transit 2A - All Passes

Search period start: 04 April 2026 00:00
Search period end: 14 April 2026 00:00
Orbit: 591 x 953 km, 66.7° (Epoch: 29 March)

Date Brightness Start Highest point End Pass type
(mag) Time Alt. Az. Time Alt. Az. Time Alt. Az.
4 Apr - 01:20:53 10° SSW 01:27:10 76° ESE 01:33:24 10° NNE visible
4 Apr - 03:06:06 10° W 03:10:52 22° NW 03:15:34 10° N visible
4 Apr - 10:09:16 10° NNW 10:14:30 47° NE 10:19:11 10° SE daylight
4 Apr - 11:53:18 10° WNW 11:57:02 20° WSW 12:00:31 10° SSW daylight
5 Apr - 00:44:46 10° S 00:50:50 52° ESE 00:56:51 10° NE visible
5 Apr - 02:28:43 10° WSW 02:34:11 30° NW 02:39:33 10° N visible
5 Apr - 09:33:04 10° NNW 09:37:55 32° NE 09:42:18 10° ESE daylight
5 Apr - 11:16:16 10° NW 11:20:53 32° WSW 11:25:07 10° S daylight
6 Apr - 00:08:57 10° S 00:14:34 35° ESE 00:20:09 10° NE visible
6 Apr - 01:51:39 10° SW 01:57:35 42° NW 02:03:24 10° NNE visible
6 Apr - 08:57:02 10° N 09:01:14 22° NE 09:05:07 10° E daylight
6 Apr - 10:39:32 10° NW 10:44:40 52° WSW 10:49:16 10° S daylight
6 Apr - 23:33:32 10° SSE 23:38:22 24° ESE 23:43:10 10° NE visible
7 Apr - 01:14:49 10° SW 01:21:03 59° WNW 01:27:10 10° NNE visible
7 Apr - 03:02:33 10° WNW 03:05:22 13° NW 03:08:10 10° N visible
7 Apr - 08:21:12 10° N 08:24:29 16° NE 08:27:33 10° ENE daylight
7 Apr - 10:03:00 10° NNW 10:08:21 83° WSW 10:13:07 10° SSE daylight
7 Apr - 22:58:45 10° SE 23:02:14 15° ESE 23:05:42 10° ENE visible
8 Apr - 00:38:16 10° SSW 00:44:35 85° WNW 00:50:49 10° NNE visible
8 Apr - 02:24:25 10° W 02:28:32 18° NW 02:32:35 10° N visible
8 Apr - 07:45:56 10° NNE 07:47:36 11° NE 07:49:14 10° NE daylight
8 Apr - 09:26:36 10° NNW 09:31:56 63° ENE 09:36:40 10° SE daylight
8 Apr - 11:11:33 10° WNW 11:14:10 14° WSW 11:16:41 10° SW daylight
9 Apr - 00:01:58 10° SSW 00:08:13 68° ESE 00:14:22 10° NE visible
9 Apr - 01:46:46 10° W 01:51:47 24° NW 01:56:41 10° N visible
9 Apr - 08:50:20 10° NNW 08:55:24 41° NE 08:59:58 10° SE daylight
9 Apr - 10:34:04 10° NW 10:38:05 23° WSW 10:41:47 10° SSW daylight
9 Apr - 23:25:56 10° S 23:31:53 46° ESE 23:37:46 10° NE visible
10 Apr - 01:09:29 10° WSW 01:15:07 33° NW 01:20:37 10° NNE visible
10 Apr - 08:14:12 10° N 08:18:47 28° NE 08:22:58 10° ESE daylight
10 Apr - 09:57:08 10° NW 10:01:54 37° WSW 10:06:14 10° S daylight
10 Apr - 22:50:13 10° SSE 22:55:38 31° ESE 23:00:58 10° NE visible
11 Apr - 00:32:29 10° SW 00:38:32 47° NW 00:44:26 10° NNE visible
11 Apr - 02:21:58 10° NW 02:23:07 10° NW 02:24:15 10° NNW visible
11 Apr - 07:38:13 10° N 07:42:05 20° NE 07:45:40 10° E daylight
11 Apr - 09:20:29 10° NW 09:25:39 60° WSW 09:30:17 10° SSE daylight
11 Apr - 22:14:57 10° SSE 22:19:26 21° ESE 22:23:53 10° ENE visible
11 Apr - 23:55:45 10° SW 00:02:01 67° WNW 00:08:10 10° NNE visible
12 Apr - 01:42:56 10° WNW 01:46:12 14° NW 01:49:25 10° N visible
12 Apr - 07:02:31 10° N 07:05:16 14° NE 07:07:54 10° ENE daylight
12 Apr - 08:43:59 10° NNW 08:49:17 85° ENE 08:54:01 10° SSE daylight
12 Apr - 21:40:32 10° SE 21:43:19 13° ESE 21:46:04 10° ENE visible
12 Apr - 23:19:16 10° SSW 23:25:35 86° ESE 23:31:47 10° NNE visible
13 Apr - 01:04:58 10° W 01:09:24 20° NW 01:13:42 10° N visible
13 Apr - 08:07:38 10° NNW 08:12:50 54° ENE 08:17:29 10° SE daylight
13 Apr - 09:52:06 10° WNW 09:55:12 17° WSW 09:58:09 10° SW daylight
13 Apr - 22:43:02 10° SSW 22:49:12 60° ESE 22:55:16 10° NE visible
